Location: Newark
(45.2500°N, 7.5833°E)
Time: 03:19:56
(UTC+00:00)

Altair - Visible Passes

Search period start: 26 January 2020 00:00
Search period end: 05 February 2020 00:00
Orbit: 1502 x 1682 km, 47.2° (Epoch: 25 January)

Date Brightness Start Highest point End Pass type
(mag) Time Alt. Az. Time Alt. Az. Time Alt. Az.
26 Jan 10.0 05:24:47 10° SSE 05:30:40 18° SE 05:36:37 10° E visible
27 Jan 10.0 05:00:29 10° SSE 05:05:39 16° ESE 05:10:54 10° E visible
28 Jan 10.0 04:36:20 10° SSE 04:40:39 14° ESE 04:45:00 10° E visible
29 Jan 10.0 04:12:32 10° SE 04:15:39 12° ESE 04:18:47 10° ESE visible
29 Jan 8.9 06:09:10 10° SSW 06:18:22 44° SE 06:27:44 10° ENE visible
30 Jan 10.2 03:50:20 10° ESE 03:50:40 10° ESE 03:51:00 10° ESE visible
30 Jan 8.9 05:44:14 10° SSW 05:53:15 41° SE 06:02:28 10° ENE visible
31 Jan 8.9 05:19:21 10° SSW 05:28:09 38° SE 05:37:10 10° ENE visible
01 Feb 9.0 04:54:29 10° SSW 05:03:04 36° SE 05:11:52 10° ENE visible
02 Feb 9.0 04:29:39 10° SSW 04:37:59 33° SE 04:46:31 10° ENE visible
03 Feb 9.0 04:04:52 10° S 04:12:55 30° SE 04:21:10 10° ENE visible
03 Feb 8.0 06:06:45 10° SW 06:16:37 73° SSE 06:26:44 10° ENE visible
04 Feb 9.1 03:40:06 10° S 03:47:52 28° SE 03:55:47 10° ENE visible
04 Feb 8.0 05:41:39 10° SW 05:51:26 70° SSE 06:01:30 10° ENE visible
